Location: Boca de Tacagua
(10.5333°N, 66.9833°W)
Time: 03:10:32
(UTC+00:00)

Ariane H10-3 - Pass Details

Date: 09 July 2022
Orbit: 476 x 36437 km, 5.2° (Epoch: 14 August)

Event Time Altitude Azimuth Distance (km) Brightness Sun altitude
Rises 21:13:16 0° 266° (W) 6,680 7.9 22.3°
Reaches altitude 10° 21:15:50 10° 265° (W) 6,474 8.1 21.7°
Maximum altitude 00:43:12 80° 175° (S) 33,745 10.0 -24.8°
Drops below altitude 10° 07:31:22 10° 116° (ESE) 4,983 6.4 -35.4°
Sets 07:33:30 0° 111° (ESE) 5,311 6.7 -34.9°
